Home > Weather > Palestine > Past weeks

Flag for USA Weather for the Past 2 Weeks in Palestine, Texas, USA

Now
52 °F

Clear.


Feels Like: 52 °F
Forecast: 50 / 72 °F
Wind: 3 mph from North

Location: Palestine Municipal Airport

Current Time: May 3, 2016 at 2:12:27 AM

Latest Report: May 3, 2016 at 1:35 AM


Visibility: 10 mi

Pressure: 30.09 "Hg

Humidity: 96%

Dew Point: 51 °F

Location of PalestineLocation

Historic Weather in Palestine — Graph

°F

Palestine Temperature Yesterday

Maximum temperature yesterday: 69 °F (at 3:55 PM)
Minimum temperature yesterday: 55 °F (at 11:35 PM)
Average temperature yesterday: 61 °F

High & Low Weather Summary for the Past Weeks

 TemperatureHumidityPressure
High87 °F (Apr 28, 4:55 PM)100% (Apr 18, 12:15 AM)30.16 "Hg (Apr 18, 12:15 AM)
Low53 °F (Apr 23, 7:15 AM)34% (Apr 28, 3:15 PM)29.59 "Hg (Apr 29, 4:55 PM)
Average71 °F77%29.92 "Hg
* Reported Apr 18 12:15 AM — May 3 12:35 AM, Palestine, Weather by CustomWeather, © 2016

Note: Actual official high and low records may vary slightly from our data, if they occured in-between our weather recording intervals... More about our weather records

Advertising

Palestine Weather History for the Previous 24 Hours

Scroll right to see more
 ConditionsComfort  
Time TempWeatherWind HumidityBarometerVisibility
12:35 AM
Tue, May 3
54 °FClear.3 mph92%30.10 "Hg10 mi
11:55 PM
Mon, May 2
55 °FClear.6 mph94%30.10 "Hg10 mi
11:35 PM55 °FClear.3 mph94%30.11 "Hg10 mi
10:55 PM56 °FPassing clouds.3 mph91%30.10 "Hg10 mi
10:15 PM56 °FPassing clouds.3 mph92%30.10 "Hg10 mi
9:55 PM56 °FPassing clouds.3 mph91%30.09 "Hg10 mi
9:35 PM57 °FPassing clouds.No wind87%30.09 "Hg10 mi
9:15 PM59 °FPassing clouds.3 mph83%30.09 "Hg10 mi
8:55 PM59 °FScattered clouds.3 mph83%30.08 "Hg10 mi
8:15 PM61 °FScattered clouds.5 mph80%30.07 "Hg10 mi
7:35 PM63 °FScattered clouds.6 mph73%30.07 "Hg10 mi
7:15 PM63 °FMore clouds than sun.7 mph72%30.07 "Hg10 mi
6:55 PM64 °FBroken clouds.6 mph71%30.08 "Hg10 mi
6:15 PM66 °FPartly sunny.8 mph66%30.06 "Hg10 mi
5:55 PM65 °FMore clouds than sun.12 mph68%30.05 "Hg10 mi
5:15 PM67 °FPartly sunny.6 mph66%30.06 "Hg10 mi
4:55 PM66 °FOvercast.12 mph68%30.06 "Hg10 mi
4:15 PM66 °FOvercast.8 mph67%30.07 "Hg10 mi
3:55 PM69 °FMore clouds than sun.8 mph64%30.06 "Hg10 mi
3:35 PM67 °FMostly cloudy.6 mph70%30.08 "Hg10 mi
3:15 PM68 °FMore clouds than sun.8 mph66%30.07 "Hg10 mi
2:55 PM67 °FMostly cloudy.9 mph70%30.08 "Hg10 mi
2:35 PM66 °FMostly cloudy.7 mph73%30.08 "Hg10 mi
2:15 PM66 °FMore clouds than sun.10 mph72%30.09 "Hg10 mi
1:55 PM66 °FMostly cloudy.7 mph74%30.08 "Hg10 mi
1:35 PM64 °FCloudy.8 mph77%30.10 "Hg10 mi
1:15 PM64 °FCloudy.9 mph78%30.11 "Hg10 mi
12:55 PM62 °FBroken clouds.7 mph84%30.10 "Hg10 mi
12:35 PM60 °FLow clouds.12 mph88%30.12 "Hg10 mi
12:15 PM60 °FLow clouds.8 mph89%30.09 "Hg10 mi
11:55 AM60 °FLow clouds.6 mph90%30.10 "Hg10 mi
11:35 AM61 °FOvercast.7 mph87%30.11 "Hg10 mi
11:15 AM62 °FOvercast.6 mph87%30.11 "Hg10 mi
10:55 AM62 °FOvercast.7 mph85%30.11 "Hg10 mi
10:35 AM63 °FPartly sunny.9 mph87%30.08 "Hg10 mi
10:15 AM61 °FMore clouds than sun.12 mph91%30.08 "Hg10 mi
9:55 AM59 °FOvercast.6 mph95%30.09 "Hg10 mi
9:35 AM58 °FLight rain. More clouds than sun.9 mph93%30.09 "Hg10 mi
9:15 AM58 °FOvercast.6 mph92%30.09 "Hg10 mi
8:55 AM58 °FLight rain. Overcast.9 mph93%30.10 "Hg10 mi
8:35 AM58 °FOvercast.8 mph90%30.09 "Hg10 mi
8:15 AM58 °FMostly cloudy.8 mph90%30.08 "Hg10 mi
7:55 AM58 °FOvercast.7 mph92%30.07 "Hg10 mi
7:35 AM58 °FRain. Overcast.3 mph93%30.07 "Hg10 mi
7:15 AM58 °FOvercast.6 mph89%30.07 "Hg10 mi
6:55 AM60 °FLight rain. Overcast.8 mph82%30.06 "Hg10 mi
6:15 AM61 °FOvercast.5 mph75%30.03 "Hg10 mi
5:55 AM61 °FMostly cloudy.3 mph76%30.00 "Hg10 mi
5:35 AM61 °FOvercast.6 mph75%30.00 "Hg10 mi
5:15 AM61 °FOvercast.6 mph78%30.00 "Hg10 mi
4:55 AM61 °FOvercast.3 mph81%29.99 "Hg10 mi
4:15 AM60 °FOvercast.7 mph84%29.98 "Hg10 mi
3:55 AM61 °FPassing clouds.7 mph81%29.98 "Hg10 mi
3:35 AM61 °FPartly cloudy.8 mph80%29.98 "Hg10 mi
3:15 AM61 °FOvercast.6 mph81%30.00 "Hg10 mi
2:55 AM61 °FMostly cloudy.9 mph82%30.00 "Hg10 mi
2:15 AM62 °FMostly cloudy.3 mph91%30.02 "Hg10 mi
Weather by CustomWeather, © 2016

See weather overviewHow to use our weather pages